Regional Weather Roundup
Issued by NWS

Home | Current Version | Previous Version | Graphics & Text | Print | Product List | Glossary On
Versions: 1 2 3 4 5 6 7 8 9 10 11 12 13 14 15 16 17 18 19 20 21 22 23 24 25 26 27 28 29 30 31 32 33 34 35 36 37 38 39 40 41 42 43 44 45 46 47 48 49 50
000
ASUS45 KPSR 292010
RWRAZ

ARIZONA REGIONAL HOURLY WEATHER ROUNDUP
NATIONAL WEATHER SERVICE PHOENIX AZ
100 PM MST TUE JUL 29 2014

NOTE: FAIR INDICATES FEW OR NO CLOUDS BELOW 12,000 FEET WITH NO
SIGNIFICANT WEATHER AND/OR OBSTRUCTIONS TO VISIBILITY.

AZZ001>003-036-292100-
NORTHWEST ARIZONA

CITY           SKY/WX    TMP DP  RH WIND       PRES   REMARKS
BULLHEAD CITY  MOSUNNY  104  55  20 SW3       29.90F HX 103
KINGMAN        MOSUNNY   95  51  22 W14G20    30.12F
$$

AZZ004>008-015-016-018-292100-
NORTH CENTRAL ARIZONA

CITY           SKY/WX    TMP DP  RH WIND       PRES   REMARKS
GRAND CANYON   PTSUNNY   81  48  31 VRB5      30.34F
WILLIAMS       MOSUNNY   75  50  41 S9        30.42F
PRESCOTT       PTSUNNY   88  51  28 VRB5      30.24F
FLAGSTAFF      PTSUNNY   78  48  34 S14G22    30.38F
PAYSON         MOSUNNY   88  50  27 VRB7G18   30.26F
PAGE           MOSUNNY   88  51  28 W10G18    30.14S
$$

AZZ009>014-017-292100-
NORTHEAST ARIZONA

CITY           SKY/WX    TMP DP  RH WIND       PRES   REMARKS
WINSLOW        PTSUNNY   85  55  35 NW28G36   30.20F THUNDER
SAINT JOHNS    MOSUNNY   87  49  26 MISG      30.25F
WINDOW ROCK    MOSUNNY   84  43  23 NW3       30.33F
SHOW LOW       PTSUNNY   73  52  46 S21G29    30.35S THUNDER
$$

AZZ023-292100-
GREATER PHOENIX AREA

CITY           SKY/WX    TMP DP  RH WIND       PRES   REMARKS
PHOENIX        PTSUNNY  108  58  19 S9        29.92F HX 108
BUCKEYE          N/A    102  55  21 S7        29.94F HX 101
GLENDALE       MOSUNNY  106  57  20 SW7G16    29.94F HX 105
LUKE AFB       NOT AVBL
DEER VALLEY    SUNNY    103  55  20 SW14G20   29.95F HX 101
SCOTTSDALE     SUNNY    102  57  22 SE9       29.97F HX 101
MESA-GATEWAY   MOSUNNY  102  59  24 W9        29.97F HX 102
CHANDLER       PTSUNNY  102  59  24 W6        29.95F HX 102
$$

AZZ027-028-292100-
SOUTHWEST MARICOPA COUNTY AND PINAL COUNTY

CITY           SKY/WX    TMP DP  RH WIND       PRES   REMARKS
CASA GRANDE    SUNNY    102  57  22 SW7       29.97F HX 101
GILA BEND      PTCLDY   106  54  17 VRB5      29.93F HX 104
$$

AZZ503-504-507>509-292100-
SOUTHEAST ARIZONA

CITY           SKY/WX    TMP DP  RH WIND       PRES   REMARKS
TUCSON         PTSUNNY   99  53  21 W6        30.07F
DAVIS-MONTHAN  MOSUNNY   95  56  26 NW6       30.05F
RYAN FIELD       N/A     99  54  22 S6        30.06F
NOGALES        MOSUNNY   93  56  28 W6        30.15F
SIERRA VISTA   PTSUNNY   88  57  35 VRB5      30.22F
DOUGLAS        PTSUNNY   85  59  41 S7        30.19F
SAFFORD        MOSUNNY   94  55  26 SW7       30.07F
$$

AZZ020-021-025-026-031-292100-
SOUTHWEST ARIZONA

CITY           SKY/WX    TMP DP  RH WIND       PRES   REMARKS
YUMA           PTSUNNY  108  53  16 VRB6      29.88F HX 106
$$

CAZ031-033-041-043-047-048-061-292100-
SOUTHERN CALIFORNIA

CITY           SKY/WX    TMP DP  RH WIND       PRES   REMARKS
DOWNTOWN L.A.  SUNNY     83  61  47 VRB3      29.99F
L.A. AIRPORT   PTSUNNY   75  64  68 W12       30.01F
SAN DIEGO      PTSUNNY   83  59  44 NW13      30.00F
BURBANK        SUNNY     89  55  31 S12       30.00F
ONTARIO        CLOUDY    93  47  20 W10       30.00F
RIVERSIDE      SUNNY     92  46  20 VRB6      30.00F
PALM SPRINGS   SUNNY    109  48  13 N12G17    29.89F HX 105
EL CENTRO NAS  PTSUNNY  107  51  15 VRB3      29.86F HX 104
IMPERIAL       MOSUNNY  108  51  15 VRB6      29.85F HX 105
BLYTHE           N/A    N/A N/A N/A MISG      29.88F
NEEDLES        MOSUNNY  105  58  21 VRB7      29.91F HX 105
$$

NVZ020-UTZ003-292100-
SOUTHERN NEVADA-UTAH

CITY           SKY/WX    TMP DP  RH WIND       PRES   REMARKS
LAS VEGAS      MOSUNNY   94  57  28 SW6       29.97F
SALT LAKE CITY TSTM      68  63  84 W6        30.22R
$$

NMZ009-TXZ055-292100-
NEW MEXICO-WEST TEXAS

CITY           SKY/WX    TMP DP  RH WIND       PRES   REMARKS
ALBUQUERQUE    MOSUNNY   80  55  42 SW8       30.25F
EL PASO        PTSUNNY   79  63  57 E6        30.18F
$$


........................KEY........................
SKY/WX - SKY CONDITION/WEATHER
TMP    - TEMPERATURE IN FAHRENHEIT
DP     - DEW POINT IN FAHRENHEIT
RH     - RELATIVE HUMIDITY IN PERCENT
WIND   - DIRECTION AND SPEED IN MILES PER HOUR (MPH)
VRB    - VARIABLE WIND DIRECTION
PRES   - MEAN SEA LEVEL PRESSURE IN INCHES OF MERCURY
         F - FALLING PRESSURE   R - RISING PRESSURE
         S - STEADY PRESSURE
VSB    - VISIBILITY IN MILES
HX     - HEAT INDEX IN FAHRENHEIT
WCI    - WIND CHILL INDEX IN FAHRENHEIT
TC     - TEMPERATURE IN CELSIUS WHICH IS ALSO KNOWN AS
         TEMPERATURE IN CENTIGRADE
AFB    - AIR FORCE BASE
         LUKE AFB IS LUKE AIR FORCE BASE
         DAVIS-MONTHAN IS DAVIS-MONTHAN AIR FORCE BASE
NAS    - NAVAL AIR STATION
         EL CENTRO NAS IS EL CENTRO NAVAL AIR STATION
N/A    - NOT AVAILABLE



USA.gov is the U.S. government's official web portal to all federal, state and local government web resources and services.